Milwaukee General Mitchell International Airport (MKE)


Airport Diagram
Current Weather/Forecast (VFR Conditions)
METAR KMKE 171552Z 23015G21KT 10SM FEW250 27/15 A3007 RMK AO2 SLP178 T02670150
TAF KMKE 171505Z 1715/1818 23011G18KT P6SM FEW060 FEW250 FM172100 29012G18KT P6SM VCSH BKN050 FM180000 34008KT P6SM BKN100 FM180800 03008KT P6SM FEW250

All Charts
General
Chart Name Download
AIRPORT DIAGRAM
TAKEOFF MINIMUMS
HOT SPOT

Departures
Chart Name Download
ACCRA FIVE (RNAV)
MITCHELL SIX
UECKR SIX (RNAV)

Arrivals
Chart Name Download
GOPAC TWO (RNAV)

Approaches
Chart Name Download
ILS OR LOC RWY 01L
ILS OR LOC RWY 07R
ILS OR LOC RWY 19R
ILS RWY 01L (CAT II - III)
RNAV (RNP) Y RWY 07R
RNAV (RNP) Y RWY 25L
RNAV (GPS) RWY 01L
RNAV (GPS) RWY 01R
RNAV (GPS) RWY 07L
RNAV (GPS) RWY 13
RNAV (GPS) RWY 19L
RNAV (GPS) RWY 19R
RNAV (GPS) RWY 25R
RNAV (GPS) RWY 31
RNAV (GPS) Z RWY 07R
RNAV (GPS) Z RWY 25L
LOC RWY 25L